Osceola Municipal, IA

6:15 PM CDT on April 25, 2018 (GMT -0500)
Osceola Municipal

Weather History for KI75 - April, 2014

Change the Weather History Date:

Tuesday, April 22, 2014

  Actual Average (KCNC) Record (KCNC)
Temperature  
Mean Temperature 52 °F -  
Max Temperature 65 °F 63 °F 89 °F (1980)
Min Temperature 38 °F 39 °F 22 °F (1986)
Degree Days  
Heating Degree Days 14    
Growing Degree Days 2 (Base 50)    
Moisture  
Dew Point 32 °F    
Average Humidity 46    
Maximum Humidity 74    
Minimum Humidity 25    
Precipitation  
Precipitation 0.03 in - - ()
Sea Level Pressure  
Sea Level Pressure 30.08 in    
Wind  
Wind Speed 9 mph (North)    
Max Wind Speed 15 mph    
Max Gust Speed 23 mph    
Visibility 10 miles    
Events      
Averages and records for this station are not official NWS values.
T = Trace of Precipitation, MM = Missing Value Source: NWS Daily Summary

Daily Weather History Graph

Daily Weather History Graph

Search for Another Location

Airport or City:

Astronomy

Apr. 22, 2014 Rise Set
Actual Time 6:25 AM CDT 8:02 PM CDT
Civil Twilight 5:55 AM CDT 8:31 PM CDT
Nautical Twilight 5:20 AM CDT 9:06 PM CDT
Astronomical Twilight 4:43 AM CDT 9:44 PM CDT
Moon 2:17 AM CDT (4/22) 1:00 PM CDT (4/22)
Length of Visible Light 14h 35m
Length of Day
13h 37m
Last Quarter, 46% of the Moon is Illuminated
Apr 22
Last Quarter
Apr 29
New
May 6
First Quarter
May 14
Full
May 21
Last Quarter

Hourly Weather History & Observations

Time (CDT) Temp. Windchill Dew Point Humidity Pressure Visibility Wind Dir Wind Speed Gust Speed Precip Events Conditions
12:15 AM 49.1 °F - 34.5 °F 57% 30.07 in 10.0 mi NW 5.8 mph - N/A   Clear
12:35 AM 49.1 °F - 34.2 °F 56% 30.08 in 10.0 mi NW 9.2 mph - N/A   Clear
12:55 AM 50.0 °F - 32.9 °F 52% 30.08 in 10.0 mi NW 11.5 mph - N/A   Clear
1:15 AM 49.1 °F - 33.1 °F 54% 30.08 in 10.0 mi NNW 13.8 mph - N/A   Clear
1:35 AM 49.1 °F - 32.9 °F 54% 30.09 in 10.0 mi NNW 13.8 mph 19.6 mph N/A   Clear
1:55 AM 48.2 °F - 33.3 °F 56% 30.09 in 10.0 mi NNW 12.7 mph - N/A   Clear
2:15 AM 47.3 °F - 33.3 °F 58% 30.08 in 10.0 mi NNW 12.7 mph - N/A   Clear
2:35 AM 46.6 °F - 32.9 °F 59% 30.09 in 10.0 mi NNW 15.0 mph - N/A   Clear
2:55 AM 45.9 °F 39.4 °F 32.5 °F 60% 30.09 in 10.0 mi NNW 15.0 mph - N/A   Clear
3:15 AM 45.3 °F 39.3 °F 32.2 °F 60% 30.09 in 10.0 mi NNW 12.7 mph - N/A   Clear
3:35 AM 44.6 °F 38.4 °F 32.0 °F 61% 30.10 in 10.0 mi NNW 12.7 mph - N/A   Clear
3:55 AM 43.9 °F 37.2 °F 32.0 °F 63% 30.10 in 10.0 mi NNW 13.8 mph - N/A   Clear
4:15 AM 42.8 °F 36.2 °F 32.0 °F 66% 30.10 in 10.0 mi NNW 12.7 mph - N/A   Clear
4:35 AM 41.9 °F 35.9 °F 31.8 °F 67% 30.11 in 10.0 mi NNW 10.4 mph - N/A   Clear
4:55 AM 41.0 °F 35.2 °F 31.6 °F 69% 30.11 in 10.0 mi NNW 9.2 mph - N/A   Clear
5:15 AM 40.5 °F 34.6 °F 31.1 °F 69% 30.11 in 10.0 mi NNW 9.2 mph - N/A   Clear
5:35 AM 40.5 °F 35.8 °F 31.1 °F 69% 30.11 in 10.0 mi NNW 6.9 mph - N/A   Clear
5:55 AM 39.4 °F 34.5 °F 31.1 °F 72% 30.11 in 10.0 mi NNW 6.9 mph - N/A   Clear
6:15 AM 39.6 °F 34.0 °F 31.1 °F 72% 30.11 in 10.0 mi NNW 8.1 mph - N/A   Clear
6:35 AM 38.5 °F 32.7 °F 30.9 °F 74% 30.11 in 10.0 mi NNW 8.1 mph - N/A   Clear
6:55 AM 39.2 °F 34.2 °F 31.1 °F 73% 30.12 in 10.0 mi NNW 6.9 mph - N/A   Clear
7:15 AM 40.5 °F 35.8 °F 31.5 °F 70% 30.13 in 10.0 mi NNW 6.9 mph - N/A   Clear
7:35 AM 41.9 °F 38.2 °F 31.8 °F 67% 30.13 in 10.0 mi NNW 5.8 mph - N/A   Clear
7:55 AM 43.3 °F 39.2 °F 31.8 °F 64% 30.14 in 10.0 mi NNW 6.9 mph - N/A   Clear
8:15 AM 45.1 °F 40.8 °F 32.0 °F 60% 30.14 in 10.0 mi North 8.1 mph - N/A   Clear
8:35 AM 46.4 °F 41.9 °F 31.8 °F 57% 30.14 in 10.0 mi NNW 9.2 mph - N/A   Clear
8:55 AM 47.7 °F - 31.5 °F 53% 30.14 in 10.0 mi NNW 9.2 mph - N/A   Clear
9:15 AM 49.1 °F - 31.3 °F 50% 30.15 in 10.0 mi North 9.2 mph - N/A   Clear
9:35 AM 50.2 °F - 30.9 °F 48% 30.15 in 10.0 mi NNW 12.7 mph - N/A   Clear
9:55 AM 51.4 °F - 31.1 °F 46% 30.15 in 10.0 mi North 13.8 mph 18.4 mph N/A   Clear
10:15 AM 52.2 °F - 30.0 °F 43% 30.15 in 10.0 mi North 5.8 mph - N/A   Clear
10:35 AM 52.7 °F - 30.0 °F 42% 30.15 in 10.0 mi NNE 11.5 mph 16.1 mph N/A   Clear
10:55 AM 55.4 °F - 31.8 °F 41% 30.14 in 10.0 mi NNE 12.7 mph 17.3 mph 0.03 in   Scattered Clouds
11:15 AM 56.5 °F - 32.2 °F 40% 30.14 in 10.0 mi North 11.5 mph 18.4 mph N/A   Clear
11:35 AM 58.6 °F - 30.7 °F 35% 30.14 in 10.0 mi North 10.4 mph 23.0 mph N/A   Clear
11:55 AM 58.8 °F - 30.2 °F 34% 30.13 in 10.0 mi NNW 10.4 mph 17.3 mph N/A   Clear
12:15 PM 59.9 °F - 30.6 °F 33% 30.13 in 10.0 mi NW 12.7 mph - N/A   Clear
12:35 PM 60.8 °F - 31.3 °F 33% 30.13 in 10.0 mi NNE 11.5 mph - N/A   Clear
12:55 PM 61.0 °F - 30.2 °F 31% 30.12 in 10.0 mi NNW 10.4 mph 16.1 mph N/A   Clear
1:15 PM 61.5 °F - 29.8 °F 30% 30.12 in 10.0 mi NNE 3.5 mph - N/A   Clear
1:35 PM 62.1 °F - 30.7 °F 31% 30.10 in 10.0 mi NNE 10.4 mph - N/A   Clear
1:55 PM 62.6 °F - 29.1 °F 28% 30.09 in 10.0 mi NE 9.2 mph - N/A   Clear
2:15 PM 64.0 °F - 30.0 °F 28% 30.09 in 10.0 mi NE 5.8 mph 16.1 mph N/A   Clear
2:35 PM 63.0 °F - 28.8 °F 28% 30.08 in 10.0 mi North 10.4 mph - N/A   Clear
2:55 PM 63.5 °F - 29.3 °F 28% 30.08 in 10.0 mi North 6.9 mph - N/A   Clear
3:15 PM 64.4 °F - 28.9 °F 26% 30.07 in 10.0 mi NE 5.8 mph - N/A   Clear
3:35 PM 65.1 °F - 29.3 °F 26% 30.06 in 10.0 mi North 3.5 mph - N/A   Clear
3:55 PM 64.9 °F - 29.7 °F 27% 30.06 in 10.0 mi NE 6.9 mph - N/A   Clear
4:15 PM 65.3 °F - 29.8 °F 26% 30.05 in 7.0 mi WNW 6.9 mph - N/A   Clear
4:35 PM 65.5 °F - 28.4 °F 25% 30.05 in 10.0 mi NE 4.6 mph - N/A   Clear
4:55 PM 65.5 °F - 29.1 °F 26% 30.04 in 10.0 mi East 4.6 mph - N/A   Clear
5:15 PM 65.3 °F - 29.1 °F 26% 30.04 in 10.0 mi WNW 9.2 mph - N/A   Clear
5:35 PM 65.7 °F - 29.8 °F 26% 30.03 in 10.0 mi North 6.9 mph - N/A   Clear
5:55 PM 65.5 °F - 28.9 °F 25% 30.03 in 10.0 mi NNE 3.5 mph - N/A   Clear
6:15 PM 65.1 °F - 28.2 °F 25% 30.03 in 10.0 mi NNW 5.8 mph - N/A   Clear
6:35 PM 64.9 °F - 29.1 °F 26% 30.02 in 10.0 mi North 4.6 mph - N/A   Clear
6:55 PM 64.4 °F - 29.3 °F 27% 30.01 in 10.0 mi NNE 4.6 mph - N/A   Clear
7:15 PM 63.7 °F - 30.9 °F 29% 30.01 in 10.0 mi NE 5.8 mph - N/A   Clear
7:35 PM 62.2 °F - 31.5 °F 31% 30.01 in 10.0 mi ENE 3.5 mph - N/A   Clear
7:55 PM 59.4 °F - 33.3 °F 37% 30.01 in 10.0 mi NE 4.6 mph - N/A   Clear
8:15 PM 57.9 °F - 33.6 °F 40% 30.01 in 10.0 mi ENE 3.5 mph - N/A   Clear
8:35 PM 56.8 °F - 32.4 °F 40% 30.02 in 10.0 mi ENE 4.6 mph - N/A   Clear
9:15 PM 56.1 °F - 32.7 °F 41% 30.03 in 10.0 mi Calm Calm - N/A   Scattered Clouds
9:35 PM 55.6 °F - 35.2 °F 46% 30.03 in 10.0 mi East 4.6 mph - N/A   Scattered Clouds
9:55 PM 54.9 °F - 35.2 °F 48% 30.04 in 10.0 mi East 3.5 mph - N/A   Scattered Clouds
10:15 PM 54.1 °F - 35.8 °F 50% 30.03 in 10.0 mi ENE 4.6 mph - N/A   Scattered Clouds
10:35 PM 52.7 °F - 35.8 °F 53% 30.04 in 10.0 mi East 4.6 mph - N/A   Clear
10:55 PM 52.5 °F - 36.1 °F 54% 30.04 in 10.0 mi East 4.6 mph - N/A   Mostly Cloudy
11:15 PM 53.1 °F - 35.8 °F 52% 30.04 in 10.0 mi East 5.8 mph - N/A   Overcast
11:35 PM 52.9 °F - 35.8 °F 52% 30.04 in 10.0 mi East 5.8 mph - N/A   Mostly Cloudy
11:55 PM 51.6 °F - 35.8 °F 55% 30.05 in 10.0 mi East 4.6 mph - N/A   Clear